Regional Weather Roundup
Issued by NWS Midland/Odessa, TX

Home | Current Version | Previous Version | Text Only | Print | Product List | Glossary On
Versions: 1 2 3 4 5 6 7 8 9 10 11 12 13 14 15 16 17 18 19 20 21 22 23 24 25 26 27 28 29 30 31 32 33 34 35 36 37 38 39 40 41 42 43 44 45 46 47 48 49 50
000
ASUS44 KMAF 280310
RWRMAF
MIDLAND AREA WEATHER ROUNDUP
NATIONAL WEATHER SERVICE MIDLAND TX
1000 PM CDT MON MAR 27 2017

...IN SOUTHWEST TEXAS AND SOUTHEAST NEW MEXICO...

CITY           SKY/WX    TMP DP  RH WIND       PRES   REMARKS
ALPINE         CLEAR     60  22  23 S6        29.92S
ANDREWS        FAIR      62  31  31 SE8       29.83S
ARTESIA        CLOUDY    68  23  18 SW8       29.78S
BIG SPRING     CLEAR     68  40  36 E13       29.85R
CARLSBAD       CLEAR     67  27  22 SE7       29.77R
DRYDEN           N/A     78  48  34 SE12      29.78R
FORT STOCKTON  CLEAR     69  29  22 E7        29.80R
GUAD PASS      CLEAR     67  19  16 W5        29.90R
HOBBS          CLEAR     57  25  28 SE7       29.84R
MARFA          CLEAR     56  18  22 E8        29.90S
MIDLAND AIRPK  CLEAR     70  31  23 E3        29.83R
MIDLAND INTL   CLEAR     69  29  22 E9        29.82R
ODESSA         CLEAR     65  29  25 E8        29.83R
PECOS          CLEAR     66  29  24 E9        29.77S
PRESIDIO       FAIR      78  22  12 NE7       29.75S
SEMINOLE       CLEAR     60  32  35 SE8       29.84S
SNYDER         CLEAR     65  42  43 E10       29.86S
WINK           CLEAR     70  27  20 SE10      29.78R
$$
...OTHER STATIONS IN TEXAS...

CITY           SKY/WX    TMP DP  RH WIND       PRES   REMARKS
ABILENE        CLEAR     64  46  52 E10       29.86R
AMARILLO       CLEAR     52  38  58 SE13      29.88R
AUSTIN         CLOUDY    75  67  76 E6        29.82R
BROWNSVILLE    CLOUDY    76  73  91 SE9       29.82R
CORPUS CHRISTI PTCLDY    73  71  93 SE10      29.82R
DALLAS FTW     PTCLDY    63  54  72 NE5       29.88R
DEL RIO        CLEAR     76  66  71 SE13      29.79R
EL PASO        CLOUDY    76  19  11 S10       29.78R
HOUSTON INT    PTCLDY    74  67  78 S9        29.87R
LUBBOCK        PTCLDY    61  39  44 SE12      29.85R
SAN ANGELO     CLEAR     69  41  36 E9        29.82R
SAN ANTONIO    PTCLDY    75  66  73 SE13      29.82R
WACO           PTCLDY    64  61  90 N6        29.85R
WICHITA FALLS  NOT AVBL
$$
...OTHER LOCATIONS IN NEW MEXICO...

CITY           SKY/WX    TMP DP  RH WIND       PRES   REMARKS
ALAMAGORDO     CLOUDY    68  25  19 SE12      29.80S
ALBUQUERQUE    CLOUDY    55  37  50 N16       29.86S
CANNON AFB     CLEAR     57  33  40 SE12      29.83R
CLOVIS         CLEAR     57  30  35 SE10      29.85R
HOLLOMAN AFB   CLOUDY    69  22  16 SE12      29.82R
ROSWELL        PTCLDY    70  18  13 SW14        N/A
RUIDOSO        CLOUDY    54  18  24 S5        29.94R
SANTA FE       CLOUDY    51  35  54 N14       29.89R
TRUTH OR CONSE MOCLDY    64  25  22 W8        29.80R
TUCUMCARI      MOCLDY    63  29  27 S9        29.78R
$$




USA.gov is the U.S. government's official web portal to all federal, state and local government web resources and services.